Time,TemperatureF,DewpointF,PressureIn,WindDirection,WindDirectionDegrees,WindSpeedMPH,WindSpeedGustMPH,Humidity,HourlyPrecipIn,Conditions,Clouds,dailyrainin,SoftwareType,DateUTC
2013-07-06 00:02:00,80.8,74.0,29.84,SE,135,1.0,-999.0,80,0.00,,,0.00,Wunderground v.1.15,2013-07-06 05:02:00,
2013-07-06 00:07:00,80.8,74.0,29.84,SE,135,1.0,-999.0,80,0.00,,,0.00,Wunderground v.1.15,2013-07-06 05:07:00,
2013-07-06 00:12:00,80.8,74.0,29.84,SE,135,1.0,-999.0,80,0.00,,,0.00,Wunderground v.1.15,2013-07-06 05:12:00,
2013-07-06 00:17:00,80.8,74.0,29.84,SE,135,1.0,-999.0,80,0.00,,,0.00,Wunderground v.1.15,2013-07-06 05:17:00,
2013-07-06 00:22:00,80.8,74.0,29.84,SE,135,1.0,-999.0,80,0.00,,,0.00,Wunderground v.1.15,2013-07-06 05:22:00,
2013-07-06 00:27:00,80.8,74.0,29.84,SE,135,1.0,-999.0,80,0.00,,,0.00,Wunderground v.1.15,2013-07-06 05:27:00,
2013-07-06 00:32:00,80.8,74.0,29.84,SE,135,1.0,-999.0,80,0.00,,,0.00,Wunderground v.1.15,2013-07-06 05:32:00,
2013-07-06 00:37:00,80.8,74.0,29.84,SE,135,1.0,-999.0,80,0.00,,,0.00,Wunderground v.1.15,2013-07-06 05:37:00,
2013-07-06 00:42:00,80.8,74.0,29.84,SE,135,1.0,-999.0,80,0.00,,,0.00,Wunderground v.1.15,2013-07-06 05:42:00,
2013-07-06 00:47:00,80.2,74.2,29.83,SE,135,1.0,-999.0,82,0.00,,,0.00,Wunderground v.1.15,2013-07-06 05:47:00,
2013-07-06 00:52:00,80.2,74.2,29.83,SE,135,1.0,-999.0,82,0.00,,,0.00,Wunderground v.1.15,2013-07-06 05:52:00,
2013-07-06 00:57:00,80.2,74.2,29.83,SE,135,1.0,-999.0,82,0.00,,,0.00,Wunderground v.1.15,2013-07-06 05:57:00,
2013-07-06 01:02:00,80.2,74.2,29.83,SE,135,1.0,-999.0,82,0.00,,,0.00,Wunderground v.1.15,2013-07-06 06:02:00,
2013-07-06 01:07:00,80.2,74.2,29.83,SE,135,1.0,-999.0,82,0.00,,,0.00,Wunderground v.1.15,2013-07-06 06:07:00,
2013-07-06 01:12:00,80.2,74.2,29.83,SE,135,1.0,-999.0,82,0.00,,,0.00,Wunderground v.1.15,2013-07-06 06:12:00,
2013-07-06 01:17:00,80.0,74.7,29.83,SE,135,0.0,-999.0,84,0.00,,,0.00,Wunderground v.1.15,2013-07-06 06:17:00,
2013-07-06 01:22:00,80.0,74.7,29.83,SE,135,0.0,-999.0,84,0.00,,,0.00,Wunderground v.1.15,2013-07-06 06:22:00,
2013-07-06 01:27:00,80.0,74.7,29.83,SE,135,0.0,-999.0,84,0.00,,,0.00,Wunderground v.1.15,2013-07-06 06:27:00,
2013-07-06 01:32:00,80.0,74.7,29.83,SE,135,0.0,-999.0,84,0.00,,,0.00,Wunderground v.1.15,2013-07-06 06:32:00,
2013-07-06 01:37:00,80.0,74.7,29.83,SE,135,0.0,-999.0,84,0.00,,,0.00,Wunderground v.1.15,2013-07-06 06:37:00,
2013-07-06 01:42:00,80.0,74.7,29.83,SE,135,0.0,-999.0,84,0.00,,,0.00,Wunderground v.1.15,2013-07-06 06:42:00,
2013-07-06 01:47:00,79.8,74.9,29.83,SE,135,0.0,-999.0,85,0.00,,,0.00,Wunderground v.1.15,2013-07-06 06:47:00,
2013-07-06 01:52:00,79.8,74.9,29.83,SE,135,0.0,-999.0,85,0.00,,,0.00,Wunderground v.1.15,2013-07-06 06:52:00,
2013-07-06 01:57:00,79.8,74.9,29.83,SE,135,0.0,-999.0,85,0.00,,,0.00,Wunderground v.1.15,2013-07-06 06:57:00,
2013-07-06 02:02:00,79.8,74.9,29.83,SE,135,0.0,-999.0,85,0.00,,,0.00,Wunderground v.1.15,2013-07-06 07:02:00,
2013-07-06 02:07:00,79.8,74.9,29.83,SE,135,0.0,-999.0,85,0.00,,,0.00,Wunderground v.1.15,2013-07-06 07:07:00,
2013-07-06 02:12:00,79.8,74.9,29.83,SE,135,0.0,-999.0,85,0.00,,,0.00,Wunderground v.1.15,2013-07-06 07:12:00,
2013-07-06 02:17:00,79.1,74.9,29.82,SE,135,0.0,-999.0,87,0.00,,,0.00,Wunderground v.1.15,2013-07-06 07:17:00,
2013-07-06 02:22:00,79.1,74.9,29.82,SE,135,0.0,-999.0,87,0.00,,,0.00,Wunderground v.1.15,2013-07-06 07:22:00,
2013-07-06 02:27:00,79.1,74.9,29.82,SE,135,0.0,-999.0,87,0.00,,,0.00,Wunderground v.1.15,2013-07-06 07:27:00,
2013-07-06 02:32:00,79.1,74.9,29.82,SE,135,0.0,-999.0,87,0.00,,,0.00,Wunderground v.1.15,2013-07-06 07:32:00,
2013-07-06 02:37:00,79.1,74.9,29.82,SE,135,0.0,-999.0,87,0.00,,,0.00,Wunderground v.1.15,2013-07-06 07:37:00,
2013-07-06 02:42:00,79.1,74.9,29.82,SE,135,0.0,-999.0,87,0.00,,,0.00,Wunderground v.1.15,2013-07-06 07:42:00,
2013-07-06 02:47:00,78.1,74.3,29.82,N/A,-737280,0.0,-999.0,88,0.00,,,0.00,Wunderground v.1.15,2013-07-06 07:47:00,
2013-07-06 02:52:00,78.1,74.3,29.82,N/A,-737280,0.0,-999.0,88,0.00,,,0.00,Wunderground v.1.15,2013-07-06 07:52:00,
2013-07-06 02:57:00,78.1,74.3,29.82,N/A,-737280,0.0,-999.0,88,0.00,,,0.00,Wunderground v.1.15,2013-07-06 07:57:00,
2013-07-06 03:02:00,78.1,74.3,29.82,N/A,-737280,0.0,-999.0,88,0.00,,,0.00,Wunderground v.1.15,2013-07-06 08:02:00,
2013-07-06 03:07:00,78.1,74.3,29.82,N/A,-737280,0.0,-999.0,88,0.00,,,0.00,Wunderground v.1.15,2013-07-06 08:07:00,
2013-07-06 03:12:00,78.1,74.3,29.82,N/A,-737280,0.0,-999.0,88,0.00,,,0.00,Wunderground v.1.15,2013-07-06 08:12:00,
2013-07-06 03:17:00,77.4,73.9,29.82,N/A,-737280,0.0,-999.0,89,0.00,,,0.00,Wunderground v.1.15,2013-07-06 08:17:00,
2013-07-06 03:22:00,77.4,73.9,29.82,N/A,-737280,0.0,-999.0,89,0.00,,,0.00,Wunderground v.1.15,2013-07-06 08:22:00,
2013-07-06 03:27:00,77.4,73.9,29.82,N/A,-737280,0.0,-999.0,89,0.00,,,0.00,Wunderground v.1.15,2013-07-06 08:27:00,
2013-07-06 03:32:00,77.4,73.9,29.82,N/A,-737280,0.0,-999.0,89,0.00,,,0.00,Wunderground v.1.15,2013-07-06 08:32:00,
2013-07-06 03:37:00,77.4,73.9,29.82,N/A,-737280,0.0,-999.0,89,0.00,,,0.00,Wunderground v.1.15,2013-07-06 08:37:00,
2013-07-06 03:42:00,77.4,73.9,29.82,N/A,-737280,0.0,-999.0,89,0.00,,,0.00,Wunderground v.1.15,2013-07-06 08:42:00,
2013-07-06 03:47:00,76.7,73.9,29.81,N/A,-737280,0.0,-999.0,91,0.00,,,0.00,Wunderground v.1.15,2013-07-06 08:47:00,
2013-07-06 03:52:00,76.7,73.9,29.81,N/A,-737280,0.0,-999.0,91,0.00,,,0.00,Wunderground v.1.15,2013-07-06 08:52:00,
2013-07-06 03:57:00,76.7,73.9,29.81,N/A,-737280,0.0,-999.0,91,0.00,,,0.00,Wunderground v.1.15,2013-07-06 08:57:00,
2013-07-06 04:02:00,76.7,73.9,29.81,N/A,-737280,0.0,-999.0,91,0.00,,,0.00,Wunderground v.1.15,2013-07-06 09:02:00,
2013-07-06 04:07:00,76.7,73.9,29.81,N/A,-737280,0.0,-999.0,91,0.00,,,0.00,Wunderground v.1.15,2013-07-06 09:07:00,
2013-07-06 04:12:00,76.7,73.9,29.81,N/A,-737280,0.0,-999.0,91,0.00,,,0.00,Wunderground v.1.15,2013-07-06 09:12:00,
2013-07-06 04:17:00,77.0,74.2,29.81,N/A,-737280,0.0,-999.0,91,0.00,,,0.00,Wunderground v.1.15,2013-07-06 09:17:00,
2013-07-06 04:22:00,77.0,74.2,29.81,N/A,-737280,0.0,-999.0,91,0.00,,,0.00,Wunderground v.1.15,2013-07-06 09:22:00,
2013-07-06 04:27:00,77.0,74.2,29.81,N/A,-737280,0.0,-999.0,91,0.00,,,0.00,Wunderground v.1.15,2013-07-06 09:27:00,
2013-07-06 04:32:00,77.0,74.2,29.81,N/A,-737280,0.0,-999.0,91,0.00,,,0.00,Wunderground v.1.15,2013-07-06 09:32:00,
2013-07-06 04:37:00,77.0,74.2,29.81,N/A,-737280,0.0,-999.0,91,0.00,,,0.00,Wunderground v.1.15,2013-07-06 09:37:00,
2013-07-06 04:42:00,77.0,74.2,29.81,N/A,-737280,0.0,-999.0,91,0.00,,,0.00,Wunderground v.1.15,2013-07-06 09:42:00,
2013-07-06 04:47:00,76.9,74.1,29.81,N/A,-737280,0.0,-999.0,91,0.00,,,0.00,Wunderground v.1.15,2013-07-06 09:47:00,
2013-07-06 04:52:00,76.9,74.1,29.81,N/A,-737280,0.0,-999.0,91,0.00,,,0.00,Wunderground v.1.15,2013-07-06 09:52:00,
2013-07-06 04:57:00,76.9,74.1,29.81,N/A,-737280,0.0,-999.0,91,0.00,,,0.00,Wunderground v.1.15,2013-07-06 09:57:00,
2013-07-06 05:02:00,76.9,74.1,29.81,N/A,-737280,0.0,-999.0,91,0.00,,,0.00,Wunderground v.1.15,2013-07-06 10:02:00,
2013-07-06 05:07:00,76.9,74.1,29.81,N/A,-737280,0.0,-999.0,91,0.00,,,0.00,Wunderground v.1.15,2013-07-06 10:07:00,
2013-07-06 05:12:00,76.9,74.1,29.81,N/A,-737280,0.0,-999.0,91,0.00,,,0.00,Wunderground v.1.15,2013-07-06 10:12:00,
2013-07-06 05:17:00,76.9,74.1,29.81,N/A,-737280,0.0,-999.0,91,0.00,,,0.00,Wunderground v.1.15,2013-07-06 10:17:00,
2013-07-06 05:22:00,76.9,74.1,29.81,N/A,-737280,0.0,-999.0,91,0.00,,,0.00,Wunderground v.1.15,2013-07-06 10:22:00,
2013-07-06 05:27:00,76.9,74.1,29.81,N/A,-737280,0.0,-999.0,91,0.00,,,0.00,Wunderground v.1.15,2013-07-06 10:27:00,
2013-07-06 05:32:00,76.9,74.1,29.81,N/A,-737280,0.0,-999.0,91,0.00,,,0.00,Wunderground v.1.15,2013-07-06 10:32:00,
2013-07-06 05:37:00,76.9,74.1,29.81,N/A,-737280,0.0,-999.0,91,0.00,,,0.00,Wunderground v.1.15,2013-07-06 10:37:00,
2013-07-06 05:42:00,76.9,74.1,29.81,N/A,-737280,0.0,-999.0,91,0.00,,,0.00,Wunderground v.1.15,2013-07-06 10:42:00,
2013-07-06 05:47:00,76.8,74.3,29.81,N/A,-737280,0.0,-999.0,92,0.00,,,0.00,Wunderground v.1.15,2013-07-06 10:47:00,
2013-07-06 05:52:00,76.8,74.3,29.81,N/A,-737280,0.0,-999.0,92,0.00,,,0.00,Wunderground v.1.15,2013-07-06 10:52:00,
2013-07-06 05:57:00,76.8,74.3,29.81,N/A,-737280,0.0,-999.0,92,0.00,,,0.00,Wunderground v.1.15,2013-07-06 10:57:00,
2013-07-06 06:02:00,76.8,74.3,29.81,N/A,-737280,0.0,-999.0,92,0.00,,,0.00,Wunderground v.1.15,2013-07-06 11:02:00,
2013-07-06 06:07:00,76.8,74.3,29.81,N/A,-737280,0.0,-999.0,92,0.00,,,0.00,Wunderground v.1.15,2013-07-06 11:07:00,
2013-07-06 06:12:00,76.8,74.3,29.81,N/A,-737280,0.0,-999.0,92,0.00,,,0.00,Wunderground v.1.15,2013-07-06 11:12:00,
2013-07-06 06:17:00,77.1,74.9,29.81,N/A,-737280,0.0,-999.0,93,0.00,,,0.00,Wunderground v.1.15,2013-07-06 11:17:00,
2013-07-06 06:22:00,77.1,74.9,29.81,N/A,-737280,0.0,-999.0,93,0.00,,,0.00,Wunderground v.1.15,2013-07-06 11:22:00,
2013-07-06 06:27:00,77.1,74.9,29.81,N/A,-737280,0.0,-999.0,93,0.00,,,0.00,Wunderground v.1.15,2013-07-06 11:27:00,
2013-07-06 06:32:00,77.1,74.9,29.81,N/A,-737280,0.0,-999.0,93,0.00,,,0.00,Wunderground v.1.15,2013-07-06 11:32:00,
2013-07-06 06:37:00,77.1,74.9,29.81,N/A,-737280,0.0,-999.0,93,0.00,,,0.00,Wunderground v.1.15,2013-07-06 11:37:00,
2013-07-06 06:42:00,77.1,74.9,29.81,N/A,-737280,0.0,-999.0,93,0.00,,,0.00,Wunderground v.1.15,2013-07-06 11:42:00,
2013-07-06 06:47:00,77.6,75.1,29.81,SE,135,0.0,-999.0,92,0.00,,,0.00,Wunderground v.1.15,2013-07-06 11:47:00,
2013-07-06 06:52:00,77.6,75.1,29.81,SE,135,0.0,-999.0,92,0.00,,,0.00,Wunderground v.1.15,2013-07-06 11:52:00,
2013-07-06 06:57:00,77.6,75.1,29.81,SE,135,0.0,-999.0,92,0.00,,,0.00,Wunderground v.1.15,2013-07-06 11:57:00,
2013-07-06 07:02:00,77.6,75.1,29.81,SE,135,0.0,-999.0,92,0.00,,,0.00,Wunderground v.1.15,2013-07-06 12:02:00,
2013-07-06 07:07:00,77.6,75.1,29.81,SE,135,0.0,-999.0,92,0.00,,,0.00,Wunderground v.1.15,2013-07-06 12:07:00,
2013-07-06 07:12:00,77.6,75.1,29.81,SE,135,0.0,-999.0,92,0.00,,,0.00,Wunderground v.1.15,2013-07-06 12:12:00,
2013-07-06 07:17:00,80.1,76.6,29.81,East,90,0.0,-999.0,89,0.00,,,0.00,Wunderground v.1.15,2013-07-06 12:17:00,
2013-07-06 07:22:00,80.1,76.6,29.81,East,90,0.0,-999.0,89,0.00,,,0.00,Wunderground v.1.15,2013-07-06 12:22:00,
2013-07-06 07:27:00,80.1,76.6,29.81,East,90,0.0,-999.0,89,0.00,,,0.00,Wunderground v.1.15,2013-07-06 12:27:00,
2013-07-06 07:32:00,80.1,76.6,29.81,East,90,0.0,-999.0,89,0.00,,,0.00,Wunderground v.1.15,2013-07-06 12:32:00,
2013-07-06 07:37:00,80.1,76.6,29.81,East,90,0.0,-999.0,89,0.00,,,0.00,Wunderground v.1.15,2013-07-06 12:37:00,
2013-07-06 07:42:00,80.1,76.6,29.81,East,90,0.0,-999.0,89,0.00,,,0.00,Wunderground v.1.15,2013-07-06 12:42:00,
2013-07-06 07:47:00,82.6,78.0,29.82,ENE,68,2.0,-999.0,86,0.00,,,0.00,Wunderground v.1.15,2013-07-06 12:47:00,
2013-07-06 07:52:00,82.6,78.0,29.82,ENE,68,2.0,-999.0,86,0.00,,,0.00,Wunderground v.1.15,2013-07-06 12:52:00,
2013-07-06 07:57:00,82.6,78.0,29.82,ENE,68,2.0,-999.0,86,0.00,,,0.00,Wunderground v.1.15,2013-07-06 12:57:00,
2013-07-06 08:02:00,82.6,78.0,29.82,ENE,68,2.0,-999.0,86,0.00,,,0.00,Wunderground v.1.15,2013-07-06 13:02:00,
2013-07-06 08:07:00,82.6,78.0,29.82,ENE,68,2.0,-999.0,86,0.00,,,0.00,Wunderground v.1.15,2013-07-06 13:07:00,
2013-07-06 08:12:00,82.6,78.0,29.82,ENE,68,2.0,-999.0,86,0.00,,,0.00,Wunderground v.1.15,2013-07-06 13:12:00,
2013-07-06 08:17:00,83.1,78.1,29.82,ENE,68,2.0,-999.0,85,0.00,,,0.00,Wunderground v.1.15,2013-07-06 13:17:00,
2013-07-06 08:22:00,83.1,78.1,29.82,ENE,68,2.0,-999.0,85,0.00,,,0.00,Wunderground v.1.15,2013-07-06 13:22:00,
2013-07-06 08:27:00,83.1,78.1,29.82,ENE,68,2.0,-999.0,85,0.00,,,0.00,Wunderground v.1.15,2013-07-06 13:27:00,
2013-07-06 08:32:00,83.1,78.1,29.82,ENE,68,2.0,-999.0,85,0.00,,,0.00,Wunderground v.1.15,2013-07-06 13:32:00,
2013-07-06 08:37:00,83.1,78.1,29.82,ENE,68,2.0,-999.0,85,0.00,,,0.00,Wunderground v.1.15,2013-07-06 13:37:00,
2013-07-06 08:42:00,83.1,78.1,29.82,ENE,68,2.0,-999.0,85,0.00,,,0.00,Wunderground v.1.15,2013-07-06 13:42:00,
2013-07-06 08:47:00,83.8,78.1,29.82,NE,45,3.0,-999.0,83,0.00,,,0.00,Wunderground v.1.15,2013-07-06 13:47:00,
2013-07-06 08:52:00,83.8,78.1,29.82,NE,45,3.0,-999.0,83,0.00,,,0.00,Wunderground v.1.15,2013-07-06 13:52:00,
2013-07-06 08:57:00,83.8,78.1,29.82,NE,45,3.0,-999.0,83,0.00,,,0.00,Wunderground v.1.15,2013-07-06 13:57:00,
2013-07-06 09:02:00,83.8,78.1,29.82,NE,45,3.0,-999.0,83,0.00,,,0.00,Wunderground v.1.15,2013-07-06 14:02:00,
2013-07-06 09:07:00,83.8,78.1,29.82,NE,45,3.0,-999.0,83,0.00,,,0.00,Wunderground v.1.15,2013-07-06 14:07:00,
2013-07-06 09:12:00,83.8,78.1,29.82,NE,45,3.0,-999.0,83,0.00,,,0.00,Wunderground v.1.15,2013-07-06 14:12:00,
2013-07-06 09:17:00,84.8,77.6,29.83,ENE,68,4.0,-999.0,79,0.00,,,0.00,Wunderground v.1.15,2013-07-06 14:17:00,
2013-07-06 09:22:00,84.8,77.6,29.83,ENE,68,4.0,-999.0,79,0.00,,,0.00,Wunderground v.1.15,2013-07-06 14:22:00,
2013-07-06 09:27:00,84.8,77.6,29.83,ENE,68,4.0,-999.0,79,0.00,,,0.00,Wunderground v.1.15,2013-07-06 14:27:00,
2013-07-06 09:32:00,84.8,77.6,29.83,ENE,68,4.0,-999.0,79,0.00,,,0.00,Wunderground v.1.15,2013-07-06 14:32:00,
2013-07-06 09:37:00,84.8,77.6,29.83,ENE,68,4.0,-999.0,79,0.00,,,0.00,Wunderground v.1.15,2013-07-06 14:37:00,
2013-07-06 09:42:00,84.8,77.6,29.83,ENE,68,4.0,-999.0,79,0.00,,,0.00,Wunderground v.1.15,2013-07-06 14:42:00,
2013-07-06 09:47:00,85.3,77.7,29.83,East,90,4.0,-999.0,78,0.00,,,0.00,Wunderground v.1.15,2013-07-06 14:47:00,
2013-07-06 09:52:00,85.3,77.7,29.83,East,90,4.0,-999.0,78,0.00,,,0.00,Wunderground v.1.15,2013-07-06 14:52:00,
2013-07-06 09:57:00,85.3,77.7,29.83,East,90,4.0,-999.0,78,0.00,,,0.00,Wunderground v.1.15,2013-07-06 14:57:00,
2013-07-06 10:02:00,85.3,77.7,29.83,East,90,4.0,-999.0,78,0.00,,,0.00,Wunderground v.1.15,2013-07-06 15:02:00,
2013-07-06 10:07:00,85.3,77.7,29.83,East,90,4.0,-999.0,78,0.00,,,0.00,Wunderground v.1.15,2013-07-06 15:07:00,
2013-07-06 10:12:00,85.3,77.7,29.83,East,90,4.0,-999.0,78,0.00,,,0.00,Wunderground v.1.15,2013-07-06 15:12:00,
2013-07-06 10:17:00,85.5,77.5,29.83,East,90,6.0,-999.0,77,0.00,,,0.00,Wunderground v.1.15,2013-07-06 15:17:00,
2013-07-06 10:22:00,85.5,77.5,29.83,East,90,6.0,-999.0,77,0.00,,,0.00,Wunderground v.1.15,2013-07-06 15:22:00,
2013-07-06 10:27:00,85.5,77.5,29.83,East,90,6.0,-999.0,77,0.00,,,0.00,Wunderground v.1.15,2013-07-06 15:27:00,
2013-07-06 10:32:00,85.5,77.5,29.83,East,90,6.0,-999.0,77,0.00,,,0.00,Wunderground v.1.15,2013-07-06 15:32:00,
2013-07-06 10:37:00,85.5,77.5,29.83,East,90,6.0,-999.0,77,0.00,,,0.00,Wunderground v.1.15,2013-07-06 15:37:00,
2013-07-06 10:42:00,85.5,77.5,29.83,East,90,6.0,-999.0,77,0.00,,,0.00,Wunderground v.1.15,2013-07-06 15:42:00,
2013-07-06 10:47:00,85.5,77.5,29.84,East,90,6.0,-999.0,77,0.00,,,0.00,Wunderground v.1.15,2013-07-06 15:47:00,
2013-07-06 10:52:00,85.5,77.5,29.84,East,90,6.0,-999.0,77,0.00,,,0.00,Wunderground v.1.15,2013-07-06 15:52:00,
2013-07-06 10:57:00,85.5,77.5,29.84,East,90,6.0,-999.0,77,0.00,,,0.00,Wunderground v.1.15,2013-07-06 15:57:00,
2013-07-06 11:02:00,85.5,77.5,29.84,East,90,6.0,-999.0,77,0.00,,,0.00,Wunderground v.1.15,2013-07-06 16:02:00,
2013-07-06 11:07:00,85.5,77.5,29.84,East,90,6.0,-999.0,77,0.00,,,0.00,Wunderground v.1.15,2013-07-06 16:07:00,
2013-07-06 11:12:00,85.5,77.5,29.84,East,90,6.0,-999.0,77,0.00,,,0.00,Wunderground v.1.15,2013-07-06 16:12:00,
2013-07-06 11:17:00,86.5,77.6,29.84,East,90,6.0,-999.0,75,0.00,,,0.00,Wunderground v.1.15,2013-07-06 16:17:00,
2013-07-06 11:22:00,86.5,77.6,29.84,East,90,6.0,-999.0,75,0.00,,,0.00,Wunderground v.1.15,2013-07-06 16:22:00,
2013-07-06 11:27:00,86.5,77.6,29.84,East,90,6.0,-999.0,75,0.00,,,0.00,Wunderground v.1.15,2013-07-06 16:27:00,
2013-07-06 11:32:00,86.5,77.6,29.84,East,90,6.0,-999.0,75,0.00,,,0.00,Wunderground v.1.15,2013-07-06 16:32:00,
2013-07-06 11:37:00,86.5,77.6,29.84,East,90,6.0,-999.0,75,0.00,,,0.00,Wunderground v.1.15,2013-07-06 16:37:00,
2013-07-06 11:42:00,86.5,77.6,29.84,East,90,6.0,-999.0,75,0.00,,,0.00,Wunderground v.1.15,2013-07-06 16:42:00,
2013-07-06 11:47:00,86.3,77.4,29.84,East,90,7.0,-999.0,75,0.00,,,0.00,Wunderground v.1.15,2013-07-06 16:47:00,
2013-07-06 11:52:00,86.3,77.4,29.84,East,90,7.0,-999.0,75,0.00,,,0.00,Wunderground v.1.15,2013-07-06 16:52:00,
2013-07-06 11:57:00,86.3,77.4,29.84,East,90,7.0,-999.0,75,0.00,,,0.00,Wunderground v.1.15,2013-07-06 16:57:00,
2013-07-06 12:02:00,86.3,77.4,29.84,East,90,7.0,-999.0,75,0.00,,,0.00,Wunderground v.1.15,2013-07-06 17:02:00,
2013-07-06 12:07:00,86.3,77.4,29.84,East,90,7.0,-999.0,75,0.00,,,0.00,Wunderground v.1.15,2013-07-06 17:07:00,
2013-07-06 12:12:00,86.3,77.4,29.84,East,90,7.0,-999.0,75,0.00,,,0.00,Wunderground v.1.15,2013-07-06 17:12:00,
2013-07-06 12:17:00,87.2,77.9,29.84,East,90,6.0,-999.0,74,0.00,,,0.00,Wunderground v.1.15,2013-07-06 17:17:00,
2013-07-06 12:22:00,87.2,77.9,29.84,East,90,6.0,-999.0,74,0.00,,,0.00,Wunderground v.1.15,2013-07-06 17:22:00,
2013-07-06 12:27:00,87.2,77.9,29.84,East,90,6.0,-999.0,74,0.00,,,0.00,Wunderground v.1.15,2013-07-06 17:27:00,
2013-07-06 12:32:00,87.2,77.9,29.84,East,90,6.0,-999.0,74,0.00,,,0.00,Wunderground v.1.15,2013-07-06 17:32:00,
2013-07-06 12:37:00,87.2,77.9,29.84,East,90,6.0,-999.0,74,0.00,,,0.00,Wunderground v.1.15,2013-07-06 17:37:00,
2013-07-06 12:42:00,87.2,77.9,29.84,East,90,6.0,-999.0,74,0.00,,,0.00,Wunderground v.1.15,2013-07-06 17:42:00,
2013-07-06 12:47:00,86.8,77.9,29.83,East,90,7.0,-999.0,75,0.00,,,0.00,Wunderground v.1.15,2013-07-06 17:47:00,
2013-07-06 12:52:00,86.8,77.9,29.83,East,90,7.0,-999.0,75,0.00,,,0.00,Wunderground v.1.15,2013-07-06 17:52:00,
2013-07-06 12:57:00,86.8,77.9,29.83,East,90,7.0,-999.0,75,0.00,,,0.00,Wunderground v.1.15,2013-07-06 17:57:00,
2013-07-06 13:02:00,86.8,77.9,29.83,East,90,7.0,-999.0,75,0.00,,,0.00,Wunderground v.1.15,2013-07-06 18:02:00,
2013-07-06 13:07:00,86.8,77.9,29.83,East,90,7.0,-999.0,75,0.00,,,0.00,Wunderground v.1.15,2013-07-06 18:07:00,
2013-07-06 13:12:00,86.8,77.9,29.83,East,90,7.0,-999.0,75,0.00,,,0.00,Wunderground v.1.15,2013-07-06 18:12:00,
2013-07-06 13:17:00,86.8,77.5,29.82,East,90,8.0,-999.0,74,0.00,,,0.00,Wunderground v.1.15,2013-07-06 18:17:00,
2013-07-06 13:22:00,86.8,77.5,29.82,East,90,8.0,-999.0,74,0.00,,,0.00,Wunderground v.1.15,2013-07-06 18:22:00,
2013-07-06 13:27:00,86.8,77.5,29.82,East,90,8.0,-999.0,74,0.00,,,0.00,Wunderground v.1.15,2013-07-06 18:27:00,
2013-07-06 13:32:00,86.8,77.5,29.82,East,90,8.0,-999.0,74,0.00,,,0.00,Wunderground v.1.15,2013-07-06 18:32:00,
2013-07-06 13:37:00,86.8,77.5,29.82,East,90,8.0,-999.0,74,0.00,,,0.00,Wunderground v.1.15,2013-07-06 18:37:00,
2013-07-06 13:42:00,86.8,77.5,29.82,East,90,8.0,-999.0,74,0.00,,,0.00,Wunderground v.1.15,2013-07-06 18:42:00,
2013-07-06 13:47:00,87.7,78.0,29.82,East,90,7.0,-999.0,73,0.00,,,0.00,Wunderground v.1.15,2013-07-06 18:47:00,
2013-07-06 13:52:00,87.7,78.0,29.82,East,90,7.0,-999.0,73,0.00,,,0.00,Wunderground v.1.15,2013-07-06 18:52:00,
2013-07-06 13:57:00,87.7,78.0,29.82,East,90,7.0,-999.0,73,0.00,,,0.00,Wunderground v.1.15,2013-07-06 18:57:00,
2013-07-06 14:02:00,87.7,78.0,29.82,East,90,7.0,-999.0,73,0.00,,,0.00,Wunderground v.1.15,2013-07-06 19:02:00,
2013-07-06 14:07:00,87.7,78.0,29.82,East,90,7.0,-999.0,73,0.00,,,0.00,Wunderground v.1.15,2013-07-06 19:07:00,
2013-07-06 14:12:00,87.7,78.0,29.82,East,90,7.0,-999.0,73,0.00,,,0.00,Wunderground v.1.15,2013-07-06 19:12:00,
2013-07-06 14:17:00,87.5,77.8,29.81,East,90,8.0,-999.0,73,0.00,,,0.00,Wunderground v.1.15,2013-07-06 19:17:00,
2013-07-06 14:22:00,87.5,77.8,29.81,East,90,8.0,-999.0,73,0.00,,,0.00,Wunderground v.1.15,2013-07-06 19:22:00,
2013-07-06 14:27:00,87.5,77.8,29.81,East,90,8.0,-999.0,73,0.00,,,0.00,Wunderground v.1.15,2013-07-06 19:27:00,
2013-07-06 14:32:00,87.5,77.8,29.81,East,90,8.0,-999.0,73,0.00,,,0.00,Wunderground v.1.15,2013-07-06 19:32:00,
2013-07-06 14:37:00,87.5,77.8,29.81,East,90,8.0,-999.0,73,0.00,,,0.00,Wunderground v.1.15,2013-07-06 19:37:00,
2013-07-06 14:42:00,87.5,77.8,29.81,East,90,8.0,-999.0,73,0.00,,,0.00,Wunderground v.1.15,2013-07-06 19:42:00,
2013-07-06 14:47:00,88.0,78.3,29.81,East,90,7.0,-999.0,73,0.00,,,0.00,Wunderground v.1.15,2013-07-06 19:47:00,
2013-07-06 14:52:00,88.0,78.3,29.81,East,90,7.0,-999.0,73,0.00,,,0.00,Wunderground v.1.15,2013-07-06 19:52:00,
2013-07-06 14:57:00,88.0,78.3,29.81,East,90,7.0,-999.0,73,0.00,,,0.00,Wunderground v.1.15,2013-07-06 19:57:00,
2013-07-06 15:02:00,88.0,78.3,29.81,East,90,7.0,-999.0,73,0.00,,,0.00,Wunderground v.1.15,2013-07-06 20:02:00,
2013-07-06 15:07:00,88.0,78.3,29.81,East,90,7.0,-999.0,73,0.00,,,0.00,Wunderground v.1.15,2013-07-06 20:07:00,
2013-07-06 15:12:00,88.0,78.3,29.81,East,90,7.0,-999.0,73,0.00,,,0.00,Wunderground v.1.15,2013-07-06 20:12:00,
2013-07-06 15:17:00,87.7,78.0,29.80,East,90,8.0,-999.0,73,0.00,,,0.00,Wunderground v.1.15,2013-07-06 20:17:00,
2013-07-06 15:22:00,87.7,78.0,29.80,East,90,8.0,-999.0,73,0.00,,,0.00,Wunderground v.1.15,2013-07-06 20:22:00,
2013-07-06 15:27:00,87.7,78.0,29.80,East,90,8.0,-999.0,73,0.00,,,0.00,Wunderground v.1.15,2013-07-06 20:27:00,
2013-07-06 15:32:00,87.7,78.0,29.80,East,90,8.0,-999.0,73,0.00,,,0.00,Wunderground v.1.15,2013-07-06 20:32:00,
2013-07-06 15:37:00,87.7,78.0,29.80,East,90,8.0,-999.0,73,0.00,,,0.00,Wunderground v.1.15,2013-07-06 20:37:00,
2013-07-06 15:42:00,87.7,78.0,29.80,East,90,8.0,-999.0,73,0.00,,,0.00,Wunderground v.1.15,2013-07-06 20:42:00,
2013-07-06 15:47:00,87.6,78.3,29.79,East,90,8.0,-999.0,74,0.00,,,0.00,Wunderground v.1.15,2013-07-06 20:47:00,
2013-07-06 15:52:00,87.6,78.3,29.79,East,90,8.0,-999.0,74,0.00,,,0.00,Wunderground v.1.15,2013-07-06 20:52:00,
2013-07-06 15:57:00,87.6,78.3,29.79,East,90,8.0,-999.0,74,0.00,,,0.00,Wunderground v.1.15,2013-07-06 20:57:00,
2013-07-06 16:02:00,87.6,78.3,29.79,East,90,8.0,-999.0,74,0.00,,,0.00,Wunderground v.1.15,2013-07-06 21:02:00,
2013-07-06 16:07:00,87.6,78.3,29.79,East,90,8.0,-999.0,74,0.00,,,0.00,Wunderground v.1.15,2013-07-06 21:07:00,
2013-07-06 16:12:00,87.6,78.3,29.79,East,90,8.0,-999.0,74,0.00,,,0.00,Wunderground v.1.15,2013-07-06 21:12:00,
2013-07-06 16:17:00,87.2,77.9,29.78,East,90,8.0,-999.0,74,0.00,,,0.00,Wunderground v.1.15,2013-07-06 21:17:00,
2013-07-06 16:22:00,87.2,77.9,29.78,East,90,8.0,-999.0,74,0.00,,,0.00,Wunderground v.1.15,2013-07-06 21:22:00,
2013-07-06 16:27:00,87.2,77.9,29.78,East,90,8.0,-999.0,74,0.00,,,0.00,Wunderground v.1.15,2013-07-06 21:27:00,
2013-07-06 16:32:00,87.2,77.9,29.78,East,90,8.0,-999.0,74,0.00,,,0.00,Wunderground v.1.15,2013-07-06 21:32:00,
2013-07-06 16:37:00,87.2,77.9,29.78,East,90,8.0,-999.0,74,0.00,,,0.00,Wunderground v.1.15,2013-07-06 21:37:00,
2013-07-06 16:42:00,87.2,77.9,29.78,East,90,8.0,-999.0,74,0.00,,,0.00,Wunderground v.1.15,2013-07-06 21:42:00,
2013-07-06 16:47:00,87.3,78.0,29.77,East,90,8.0,-999.0,74,0.00,,,0.00,Wunderground v.1.15,2013-07-06 21:47:00,
2013-07-06 16:52:00,87.3,78.0,29.77,East,90,8.0,-999.0,74,0.00,,,0.00,Wunderground v.1.15,2013-07-06 21:52:00,
2013-07-06 16:57:00,87.3,78.0,29.77,East,90,8.0,-999.0,74,0.00,,,0.00,Wunderground v.1.15,2013-07-06 21:57:00,
2013-07-06 17:02:00,87.3,78.0,29.77,East,90,8.0,-999.0,74,0.00,,,0.00,Wunderground v.1.15,2013-07-06 22:02:00,
2013-07-06 17:07:00,87.3,78.0,29.77,East,90,8.0,-999.0,74,0.00,,,0.00,Wunderground v.1.15,2013-07-06 22:07:00,
2013-07-06 17:12:00,87.3,78.0,29.77,East,90,8.0,-999.0,74,0.00,,,0.00,Wunderground v.1.15,2013-07-06 22:12:00,
2013-07-06 17:17:00,87.1,77.0,29.77,ESE,113,8.0,-999.0,72,0.00,,,0.00,Wunderground v.1.15,2013-07-06 22:17:00,
2013-07-06 17:22:00,87.1,77.0,29.77,ESE,113,8.0,-999.0,72,0.00,,,0.00,Wunderground v.1.15,2013-07-06 22:22:00,
2013-07-06 17:27:00,87.1,77.0,29.77,ESE,113,8.0,-999.0,72,0.00,,,0.00,Wunderground v.1.15,2013-07-06 22:27:00,
2013-07-06 17:32:00,87.1,77.0,29.77,ESE,113,8.0,-999.0,72,0.00,,,0.00,Wunderground v.1.15,2013-07-06 22:32:00,
2013-07-06 17:37:00,87.1,77.0,29.77,ESE,113,8.0,-999.0,72,0.00,,,0.00,Wunderground v.1.15,2013-07-06 22:37:00,
2013-07-06 17:42:00,87.1,77.0,29.77,ESE,113,8.0,-999.0,72,0.00,,,0.00,Wunderground v.1.15,2013-07-06 22:42:00,
2013-07-06 17:47:00,86.8,78.3,29.77,ESE,113,8.0,-999.0,76,0.00,,,0.00,Wunderground v.1.15,2013-07-06 22:47:00,
2013-07-06 17:52:00,86.8,78.3,29.77,ESE,113,8.0,-999.0,76,0.00,,,0.00,Wunderground v.1.15,2013-07-06 22:52:00,
2013-07-06 17:57:00,86.8,78.3,29.77,ESE,113,8.0,-999.0,76,0.00,,,0.00,Wunderground v.1.15,2013-07-06 22:57:00,
2013-07-06 18:02:00,86.8,78.3,29.77,ESE,113,8.0,-999.0,76,0.00,,,0.00,Wunderground v.1.15,2013-07-06 23:02:00,
2013-07-06 18:07:00,86.8,78.3,29.77,ESE,113,8.0,-999.0,76,0.00,,,0.00,Wunderground v.1.15,2013-07-06 23:07:00,
2013-07-06 18:12:00,86.8,78.3,29.77,ESE,113,8.0,-999.0,76,0.00,,,0.00,Wunderground v.1.15,2013-07-06 23:12:00,
2013-07-06 18:17:00,86.7,76.2,29.76,ESE,113,8.0,-999.0,71,0.00,,,0.00,Wunderground v.1.15,2013-07-06 23:17:00,
2013-07-06 18:22:00,86.7,76.2,29.76,ESE,113,8.0,-999.0,71,0.00,,,0.00,Wunderground v.1.15,2013-07-06 23:22:00,
2013-07-06 18:27:00,86.7,76.2,29.76,ESE,113,8.0,-999.0,71,0.00,,,0.00,Wunderground v.1.15,2013-07-06 23:27:00,
2013-07-06 18:32:00,86.7,76.2,29.76,ESE,113,8.0,-999.0,71,0.00,,,0.00,Wunderground v.1.15,2013-07-06 23:32:00,
2013-07-06 18:37:00,86.7,76.2,29.76,ESE,113,8.0,-999.0,71,0.00,,,0.00,Wunderground v.1.15,2013-07-06 23:37:00,
2013-07-06 18:42:00,86.7,76.2,29.76,ESE,113,8.0,-999.0,71,0.00,,,0.00,Wunderground v.1.15,2013-07-06 23:42:00,
2013-07-06 18:47:00,86.0,77.1,29.76,ESE,113,7.0,-999.0,75,0.00,,,0.00,Wunderground v.1.15,2013-07-06 23:47:00,
2013-07-06 18:52:00,86.0,77.1,29.76,ESE,113,7.0,-999.0,75,0.00,,,0.00,Wunderground v.1.15,2013-07-06 23:52:00,
2013-07-06 18:57:00,86.0,77.1,29.76,ESE,113,7.0,-999.0,75,0.00,,,0.00,Wunderground v.1.15,2013-07-06 23:57:00,
2013-07-06 19:02:00,86.0,77.1,29.76,ESE,113,7.0,-999.0,75,0.00,,,0.00,Wunderground v.1.15,2013-07-07 00:02:00,
2013-07-06 19:07:00,86.0,77.1,29.76,ESE,113,7.0,-999.0,75,0.00,,,0.00,Wunderground v.1.15,2013-07-07 00:07:00,
2013-07-06 19:12:00,86.0,77.1,29.76,ESE,113,7.0,-999.0,75,0.00,,,0.00,Wunderground v.1.15,2013-07-07 00:12:00,
2013-07-06 19:17:00,85.9,77.1,29.77,ESE,113,6.0,-999.0,75,0.00,,,0.00,Wunderground v.1.15,2013-07-07 00:17:00,
2013-07-06 19:22:00,85.9,77.1,29.77,ESE,113,6.0,-999.0,75,0.00,,,0.00,Wunderground v.1.15,2013-07-07 00:22:00,
2013-07-06 19:27:00,85.9,77.1,29.77,ESE,113,6.0,-999.0,75,0.00,,,0.00,Wunderground v.1.15,2013-07-07 00:27:00,
2013-07-06 19:32:00,85.9,77.1,29.77,ESE,113,6.0,-999.0,75,0.00,,,0.00,Wunderground v.1.15,2013-07-07 00:32:00,
2013-07-06 19:37:00,85.9,77.1,29.77,ESE,113,6.0,-999.0,75,0.00,,,0.00,Wunderground v.1.15,2013-07-07 00:37:00,
2013-07-06 19:42:00,85.9,77.1,29.77,ESE,113,6.0,-999.0,75,0.00,,,0.00,Wunderground v.1.15,2013-07-07 00:42:00,
2013-07-06 19:47:00,84.8,76.8,29.78,ESE,113,6.0,-999.0,77,0.00,,,0.00,Wunderground v.1.15,2013-07-07 00:47:00,
2013-07-06 19:52:00,84.8,76.8,29.78,ESE,113,6.0,-999.0,77,0.00,,,0.00,Wunderground v.1.15,2013-07-07 00:52:00,
2013-07-06 19:57:00,84.8,76.8,29.78,ESE,113,6.0,-999.0,77,0.00,,,0.00,Wunderground v.1.15,2013-07-07 00:57:00,
2013-07-06 20:02:00,84.8,76.8,29.78,ESE,113,6.0,-999.0,77,0.00,,,0.00,Wunderground v.1.15,2013-07-07 01:02:00,
2013-07-06 20:07:00,84.8,76.8,29.78,ESE,113,6.0,-999.0,77,0.00,,,0.00,Wunderground v.1.15,2013-07-07 01:07:00,
2013-07-06 20:12:00,84.8,76.8,29.78,ESE,113,6.0,-999.0,77,0.00,,,0.00,Wunderground v.1.15,2013-07-07 01:12:00,
2013-07-06 20:17:00,83.9,77.4,29.79,ESE,113,6.0,-999.0,81,0.00,,,0.00,Wunderground v.1.15,2013-07-07 01:17:00,
2013-07-06 20:22:00,83.9,77.4,29.79,ESE,113,6.0,-999.0,81,0.00,,,0.00,Wunderground v.1.15,2013-07-07 01:22:00,
2013-07-06 20:27:00,83.9,77.4,29.79,ESE,113,6.0,-999.0,81,0.00,,,0.00,Wunderground v.1.15,2013-07-07 01:27:00,
2013-07-06 20:32:00,83.9,77.4,29.79,ESE,113,6.0,-999.0,81,0.00,,,0.00,Wunderground v.1.15,2013-07-07 01:32:00,
2013-07-06 20:37:00,83.9,77.4,29.79,ESE,113,6.0,-999.0,81,0.00,,,0.00,Wunderground v.1.15,2013-07-07 01:37:00,
2013-07-06 20:42:00,83.9,77.4,29.79,ESE,113,6.0,-999.0,81,0.00,,,0.00,Wunderground v.1.15,2013-07-07 01:42:00,
2013-07-06 20:47:00,83.3,77.2,29.79,SE,135,5.0,-999.0,82,0.00,,,0.00,Wunderground v.1.15,2013-07-07 01:47:00,
2013-07-06 20:52:00,83.3,77.2,29.79,SE,135,5.0,-999.0,82,0.00,,,0.00,Wunderground v.1.15,2013-07-07 01:52:00,
2013-07-06 20:57:00,83.3,77.2,29.79,SE,135,5.0,-999.0,82,0.00,,,0.00,Wunderground v.1.15,2013-07-07 01:57:00,
2013-07-06 21:02:00,83.3,77.2,29.79,SE,135,5.0,-999.0,82,0.00,,,0.00,Wunderground v.1.15,2013-07-07 02:02:00,
2013-07-06 21:07:00,83.3,77.2,29.79,SE,135,5.0,-999.0,82,0.00,,,0.00,Wunderground v.1.15,2013-07-07 02:07:00,
2013-07-06 21:12:00,83.3,77.2,29.79,SE,135,5.0,-999.0,82,0.00,,,0.00,Wunderground v.1.15,2013-07-07 02:12:00,
2013-07-06 21:17:00,82.7,77.0,29.79,SE,135,4.0,-999.0,83,0.00,,,0.00,Wunderground v.1.15,2013-07-07 02:17:00,
2013-07-06 21:22:00,82.7,77.0,29.79,SE,135,4.0,-999.0,83,0.00,,,0.00,Wunderground v.1.15,2013-07-07 02:22:00,
2013-07-06 21:27:00,82.7,77.0,29.79,SE,135,4.0,-999.0,83,0.00,,,0.00,Wunderground v.1.15,2013-07-07 02:27:00,
2013-07-06 21:32:00,82.7,77.0,29.79,SE,135,4.0,-999.0,83,0.00,,,0.00,Wunderground v.1.15,2013-07-07 02:32:00,
2013-07-06 21:37:00,82.7,77.0,29.79,SE,135,4.0,-999.0,83,0.00,,,0.00,Wunderground v.1.15,2013-07-07 02:37:00,
2013-07-06 21:42:00,82.7,77.0,29.79,SE,135,4.0,-999.0,83,0.00,,,0.00,Wunderground v.1.15,2013-07-07 02:42:00,
2013-07-06 21:47:00,82.4,77.1,29.80,SE,135,4.0,-999.0,84,0.00,,,0.00,Wunderground v.1.15,2013-07-07 02:47:00,
2013-07-06 21:52:00,82.4,77.1,29.80,SE,135,4.0,-999.0,84,0.00,,,0.00,Wunderground v.1.15,2013-07-07 02:52:00,
2013-07-06 21:57:00,82.4,77.1,29.80,SE,135,4.0,-999.0,84,0.00,,,0.00,Wunderground v.1.15,2013-07-07 02:57:00,
2013-07-06 22:02:00,82.4,77.1,29.80,SE,135,4.0,-999.0,84,0.00,,,0.00,Wunderground v.1.15,2013-07-07 03:02:00,
2013-07-06 22:07:00,82.4,77.1,29.80,SE,135,4.0,-999.0,84,0.00,,,0.00,Wunderground v.1.15,2013-07-07 03:07:00,
2013-07-06 22:12:00,82.4,77.1,29.80,SE,135,4.0,-999.0,84,0.00,,,0.00,Wunderground v.1.15,2013-07-07 03:12:00,
2013-07-06 22:17:00,82.1,77.1,29.81,SE,135,4.0,-999.0,85,0.00,,,0.00,Wunderground v.1.15,2013-07-07 03:17:00,
2013-07-06 22:22:00,82.1,77.1,29.81,SE,135,4.0,-999.0,85,0.00,,,0.00,Wunderground v.1.15,2013-07-07 03:22:00,
2013-07-06 22:27:00,82.1,77.1,29.81,SE,135,4.0,-999.0,85,0.00,,,0.00,Wunderground v.1.15,2013-07-07 03:27:00,
2013-07-06 22:32:00,82.1,77.1,29.81,SE,135,4.0,-999.0,85,0.00,,,0.00,Wunderground v.1.15,2013-07-07 03:32:00,
2013-07-06 22:37:00,82.1,77.1,29.81,SE,135,4.0,-999.0,85,0.00,,,0.00,Wunderground v.1.15,2013-07-07 03:37:00,
2013-07-06 22:42:00,82.1,77.1,29.81,SE,135,4.0,-999.0,85,0.00,,,0.00,Wunderground v.1.15,2013-07-07 03:42:00,
2013-07-06 22:47:00,81.5,76.6,29.81,SSE,158,3.0,-999.0,85,0.00,,,0.00,Wunderground v.1.15,2013-07-07 03:47:00,
2013-07-06 22:52:00,81.5,76.6,29.81,SSE,158,3.0,-999.0,85,0.00,,,0.00,Wunderground v.1.15,2013-07-07 03:52:00,
2013-07-06 22:57:00,81.5,76.6,29.81,SSE,158,3.0,-999.0,85,0.00,,,0.00,Wunderground v.1.15,2013-07-07 03:57:00,
2013-07-06 23:02:00,81.5,76.6,29.81,SSE,158,3.0,-999.0,85,0.00,,,0.00,Wunderground v.1.15,2013-07-07 04:02:00,
2013-07-06 23:07:00,81.5,76.6,29.81,SSE,158,3.0,-999.0,85,0.00,,,0.00,Wunderground v.1.15,2013-07-07 04:07:00,
2013-07-06 23:12:00,81.5,76.6,29.81,SSE,158,3.0,-999.0,85,0.00,,,0.00,Wunderground v.1.15,2013-07-07 04:12:00,
2013-07-06 23:17:00,81.0,76.1,29.81,SSE,158,2.0,-999.0,85,0.00,,,0.00,Wunderground v.1.15,2013-07-07 04:17:00,
2013-07-06 23:22:00,81.0,76.1,29.81,SSE,158,2.0,-999.0,85,0.00,,,0.00,Wunderground v.1.15,2013-07-07 04:22:00,
2013-07-06 23:27:00,81.0,76.1,29.81,SSE,158,2.0,-999.0,85,0.00,,,0.00,Wunderground v.1.15,2013-07-07 04:27:00,
2013-07-06 23:32:00,81.0,76.1,29.81,SSE,158,2.0,-999.0,85,0.00,,,0.00,Wunderground v.1.15,2013-07-07 04:32:00,
2013-07-06 23:37:00,81.0,76.1,29.81,SSE,158,2.0,-999.0,85,0.00,,,0.00,Wunderground v.1.15,2013-07-07 04:37:00,
2013-07-06 23:42:00,81.0,76.1,29.81,SSE,158,2.0,-999.0,85,0.00,,,0.00,Wunderground v.1.15,2013-07-07 04:42:00,
2013-07-06 23:47:00,80.7,75.4,29.81,SSE,158,1.0,-999.0,84,0.00,,,0.00,Wunderground v.1.15,2013-07-07 04:47:00,
2013-07-06 23:52:00,80.7,75.4,29.81,SSE,158,1.0,-999.0,84,0.00,,,0.00,Wunderground v.1.15,2013-07-07 04:52:00,
2013-07-06 23:57:00,80.7,75.4,29.81,SSE,158,1.0,-999.0,84,0.00,,,0.00,Wunderground v.1.15,2013-07-07 04:57:00,